Time,TemperatureF,DewpointF,PressureIn,WindDirection,WindDirectionDegrees,WindSpeedMPH,WindSpeedGustMPH,Humidity,HourlyPrecipIn,Conditions,Clouds,dailyrainin,SolarRadiationWatts/m^2,SoftwareType,DateUTC
2013-03-04 00:11:00,52.0,37.0,-100.00,WNW,294,23.0,40.0,56,0.00,,,0.00,0.000000,,2013-03-04 08:11:00,
2013-03-04 00:21:00,52.0,37.0,-100.00,WNW,294,23.0,40.0,56,0.00,,,0.00,0.000000,,2013-03-04 08:21:00,
2013-03-04 00:31:00,52.0,37.0,-100.00,WNW,294,23.0,40.0,56,0.00,,,0.00,0.000000,,2013-03-04 08:31:00,
2013-03-04 00:41:00,52.0,37.0,-100.00,WNW,294,23.0,40.0,56,0.00,,,0.00,0.000000,,2013-03-04 08:41:00,
2013-03-04 00:50:00,51.0,38.0,-100.00,WNW,294,23.0,45.0,61,0.00,,,0.00,0.000000,,2013-03-04 08:50:00,
2013-03-04 01:11:00,51.0,38.0,-100.00,WNW,294,23.0,45.0,61,0.00,,,0.00,0.000000,,2013-03-04 09:11:00,
2013-03-04 01:21:00,51.0,38.0,-100.00,WNW,294,23.0,45.0,61,0.00,,,0.00,0.000000,,2013-03-04 09:21:00,
2013-03-04 01:31:00,51.0,38.0,-100.00,WNW,294,23.0,45.0,61,0.00,,,0.00,0.000000,,2013-03-04 09:31:00,
2013-03-04 01:42:00,51.0,38.0,-100.00,WNW,294,23.0,45.0,61,0.00,,,0.00,0.000000,,2013-03-04 09:42:00,
2013-03-04 01:50:00,48.0,38.0,-100.00,WNW,294,27.0,41.0,69,0.00,,,0.00,0.000000,,2013-03-04 09:50:00,
2013-03-04 02:11:00,48.0,38.0,-100.00,WNW,294,27.0,41.0,69,0.00,,,0.00,0.000000,,2013-03-04 10:11:00,
2013-03-04 02:21:00,48.0,38.0,-100.00,WNW,294,27.0,41.0,69,0.00,,,0.00,0.000000,,2013-03-04 10:21:00,
2013-03-04 02:31:00,48.0,38.0,-100.00,WNW,294,27.0,41.0,69,0.00,,,0.00,0.000000,,2013-03-04 10:31:00,
2013-03-04 02:41:00,48.0,38.0,-100.00,WNW,294,27.0,41.0,69,0.00,,,0.00,0.000000,,2013-03-04 10:41:00,
2013-03-04 02:50:00,48.0,41.0,-100.00,WNW,282,33.0,50.0,76,0.00,,,0.00,0.000000,,2013-03-04 10:50:00,
2013-03-04 03:21:00,48.0,41.0,-100.00,WNW,282,33.0,50.0,76,0.00,,,0.00,0.000000,,2013-03-04 11:21:00,
2013-03-04 03:31:00,48.0,41.0,-100.00,WNW,282,33.0,50.0,76,0.00,,,0.00,0.000000,,2013-03-04 11:31:00,
2013-03-04 03:41:00,48.0,41.0,-100.00,WNW,282,33.0,50.0,76,0.00,,,0.00,0.000000,,2013-03-04 11:41:00,
2013-03-04 03:50:00,45.0,40.0,-100.00,WNW,290,28.0,44.0,83,0.00,,,0.00,0.000000,,2013-03-04 11:50:00,
2013-03-04 04:22:00,45.0,40.0,-100.00,WNW,290,28.0,44.0,83,0.00,,,0.00,0.000000,,2013-03-04 12:22:00,
2013-03-04 04:32:00,45.0,40.0,-100.00,WNW,290,28.0,44.0,83,0.00,,,0.00,0.000000,,2013-03-04 12:32:00,
2013-03-04 04:42:00,45.0,40.0,-100.00,WNW,290,28.0,44.0,83,0.00,,,0.00,0.000000,,2013-03-04 12:42:00,
2013-03-04 04:50:00,47.0,42.0,-100.00,WNW,300,19.0,38.0,82,0.00,,,0.00,0.000000,,2013-03-04 12:50:00,
2013-03-04 05:11:00,47.0,42.0,-100.00,WNW,300,19.0,38.0,82,0.00,,,0.00,0.000000,,2013-03-04 13:11:00,
2013-03-04 05:21:00,47.0,42.0,-100.00,WNW,300,19.0,38.0,82,0.00,,,0.00,0.000000,,2013-03-04 13:21:00,
2013-03-04 05:31:00,47.0,42.0,-100.00,WNW,300,19.0,38.0,82,0.00,,,0.00,0.000000,,2013-03-04 13:31:00,
2013-03-04 05:41:00,47.0,42.0,-100.00,WNW,300,19.0,38.0,82,0.00,,,0.00,0.000000,,2013-03-04 13:41:00,
2013-03-04 05:50:00,46.0,37.0,-100.00,WNW,287,16.0,29.0,72,0.00,,,0.00,0.000000,,2013-03-04 13:50:00,
2013-03-04 06:11:00,46.0,37.0,-100.00,WNW,287,16.0,29.0,72,0.00,,,0.00,0.000000,,2013-03-04 14:11:00,
2013-03-04 06:22:00,46.0,37.0,-100.00,WNW,287,16.0,29.0,72,0.00,,,0.00,0.000000,,2013-03-04 14:22:00,
2013-03-04 06:32:00,46.0,37.0,-100.00,WNW,287,16.0,29.0,72,0.00,,,0.00,0.000000,,2013-03-04 14:32:00,
2013-03-04 06:41:00,46.0,37.0,-100.00,WNW,287,16.0,29.0,72,0.00,,,0.00,0.000000,,2013-03-04 14:41:00,
2013-03-04 06:50:00,47.0,41.0,-100.00,West,279,16.0,27.0,78,0.00,,,0.00,27.000000,,2013-03-04 14:50:00,
2013-03-04 07:11:00,47.0,41.0,-100.00,West,279,16.0,27.0,78,0.00,,,0.00,27.000000,,2013-03-04 15:11:00,
2013-03-04 07:21:00,47.0,41.0,-100.00,West,279,16.0,27.0,78,0.00,,,0.00,27.000000,,2013-03-04 15:21:00,
2013-03-04 07:32:00,47.0,41.0,-100.00,West,279,16.0,27.0,78,0.00,,,0.00,27.000000,,2013-03-04 15:32:00,
2013-03-04 07:41:00,47.0,41.0,-100.00,West,279,16.0,27.0,78,0.00,,,0.00,27.000000,,2013-03-04 15:41:00,
2013-03-04 07:50:00,48.0,40.0,-100.00,West,278,17.0,24.0,73,0.00,,,-99.99,261.000000,,2013-03-04 15:50:00,
2013-03-04 08:21:00,48.0,40.0,-100.00,West,278,17.0,24.0,73,0.00,,,-99.99,261.000000,,2013-03-04 16:21:00,
2013-03-04 08:31:00,48.0,40.0,-100.00,West,278,17.0,24.0,73,0.00,,,-99.99,261.000000,,2013-03-04 16:31:00,
2013-03-04 08:41:00,48.0,40.0,-100.00,West,278,17.0,24.0,73,0.00,,,-99.99,261.000000,,2013-03-04 16:41:00,
2013-03-04 08:50:00,53.0,40.0,-100.00,West,275,17.0,26.0,62,0.00,,,0.00,539.000000,,2013-03-04 16:50:00,
2013-03-04 09:22:00,53.0,40.0,-100.00,West,275,17.0,26.0,62,0.00,,,0.00,539.000000,,2013-03-04 17:22:00,
2013-03-04 09:32:00,53.0,40.0,-100.00,West,275,17.0,26.0,62,0.00,,,0.00,539.000000,,2013-03-04 17:32:00,
2013-03-04 09:42:00,53.0,40.0,-100.00,West,275,17.0,26.0,62,0.00,,,0.00,539.000000,,2013-03-04 17:42:00,
2013-03-04 09:50:00,55.0,40.0,-100.00,West,275,15.0,23.0,57,0.00,,,0.00,744.000000,,2013-03-04 17:50:00,
2013-03-04 10:21:00,55.0,40.0,-100.00,West,275,15.0,23.0,57,0.00,,,0.00,744.000000,,2013-03-04 18:21:00,
2013-03-04 10:32:00,55.0,40.0,-100.00,West,275,15.0,23.0,57,0.00,,,0.00,744.000000,,2013-03-04 18:32:00,
2013-03-04 10:42:00,55.0,40.0,-100.00,West,275,15.0,23.0,57,0.00,,,0.00,744.000000,,2013-03-04 18:42:00,
2013-03-04 10:50:00,58.0,40.0,-100.00,West,267,13.0,22.0,51,0.00,,,0.00,919.000000,,2013-03-04 18:50:00,
2013-03-04 11:11:00,58.0,40.0,-100.00,West,267,13.0,22.0,51,0.00,,,0.00,919.000000,,2013-03-04 19:11:00,
2013-03-04 11:21:00,58.0,40.0,-100.00,West,267,13.0,22.0,51,0.00,,,0.00,919.000000,,2013-03-04 19:21:00,
2013-03-04 11:32:00,58.0,40.0,-100.00,West,267,13.0,22.0,51,0.00,,,0.00,919.000000,,2013-03-04 19:32:00,
2013-03-04 11:41:00,58.0,40.0,-100.00,West,267,13.0,22.0,51,0.00,,,0.00,919.000000,,2013-03-04 19:41:00,
2013-03-04 11:50:00,61.0,41.0,-100.00,West,263,12.0,22.0,47,0.00,,,0.00,999.000000,,2013-03-04 19:50:00,
2013-03-04 12:21:00,61.0,41.0,-100.00,West,263,12.0,22.0,47,0.00,,,0.00,999.000000,,2013-03-04 20:21:00,
2013-03-04 12:32:00,61.0,41.0,-100.00,West,263,12.0,22.0,47,0.00,,,0.00,999.000000,,2013-03-04 20:32:00,
2013-03-04 12:42:00,61.0,41.0,-100.00,West,263,12.0,22.0,47,0.00,,,0.00,999.000000,,2013-03-04 20:42:00,
2013-03-04 12:50:00,65.0,42.0,-100.00,West,260,12.0,21.0,43,0.00,,,0.00,1006.000000,,2013-03-04 20:50:00,
2013-03-04 13:21:00,65.0,42.0,-100.00,West,260,12.0,21.0,43,0.00,,,0.00,1006.000000,,2013-03-04 21:21:00,
2013-03-04 13:32:00,65.0,42.0,-100.00,West,260,12.0,21.0,43,0.00,,,0.00,1006.000000,,2013-03-04 21:32:00,
2013-03-04 13:42:00,65.0,42.0,-100.00,West,260,12.0,21.0,43,0.00,,,0.00,1006.000000,,2013-03-04 21:42:00,
2013-03-04 13:50:00,66.0,40.0,-100.00,WNW,285,16.0,25.0,39,0.00,,,0.00,930.000000,,2013-03-04 21:50:00,
2013-03-04 14:12:00,66.0,40.0,-100.00,WNW,285,16.0,25.0,39,0.00,,,0.00,930.000000,,2013-03-04 22:12:00,
2013-03-04 14:22:00,66.0,40.0,-100.00,WNW,285,16.0,25.0,39,0.00,,,0.00,930.000000,,2013-03-04 22:22:00,
2013-03-04 14:32:00,66.0,40.0,-100.00,WNW,285,16.0,25.0,39,0.00,,,0.00,930.000000,,2013-03-04 22:32:00,
2013-03-04 14:42:00,66.0,40.0,-100.00,WNW,285,16.0,25.0,39,0.00,,,0.00,930.000000,,2013-03-04 22:42:00,
2013-03-04 14:50:00,64.0,39.0,-100.00,West,280,21.0,31.0,40,0.00,,,0.00,778.000000,,2013-03-04 22:50:00,
2013-03-04 15:21:00,64.0,39.0,-100.00,West,280,21.0,31.0,40,0.00,,,0.00,778.000000,,2013-03-04 23:21:00,
2013-03-04 15:32:00,64.0,39.0,-100.00,West,280,21.0,31.0,40,0.00,,,0.00,778.000000,,2013-03-04 23:32:00,
2013-03-04 15:42:00,64.0,39.0,-100.00,West,280,21.0,31.0,40,0.00,,,0.00,778.000000,,2013-03-04 23:42:00,
2013-03-04 15:50:00,64.0,39.0,-100.00,WNW,283,18.0,28.0,40,0.00,,,0.00,563.000000,,2013-03-04 23:50:00,
2013-03-04 16:21:00,64.0,39.0,-100.00,WNW,283,18.0,28.0,40,0.00,,,0.00,563.000000,,2013-03-05 00:21:00,
2013-03-04 16:32:00,64.0,39.0,-100.00,WNW,283,18.0,28.0,40,0.00,,,0.00,563.000000,,2013-03-05 00:32:00,
2013-03-04 16:41:00,64.0,39.0,-100.00,WNW,283,18.0,28.0,40,0.00,,,0.00,563.000000,,2013-03-05 00:41:00,
2013-03-04 16:50:00,65.0,39.0,-100.00,WNW,282,16.0,25.0,38,0.00,,,0.00,293.000000,,2013-03-05 00:50:00,
2013-03-04 17:12:00,65.0,39.0,-100.00,WNW,282,16.0,25.0,38,0.00,,,0.00,293.000000,,2013-03-05 01:12:00,
2013-03-04 17:21:00,65.0,39.0,-100.00,WNW,282,16.0,25.0,38,0.00,,,0.00,293.000000,,2013-03-05 01:21:00,
2013-03-04 17:32:00,65.0,39.0,-100.00,WNW,282,16.0,25.0,38,0.00,,,0.00,293.000000,,2013-03-05 01:32:00,
2013-03-04 17:41:00,65.0,39.0,-100.00,WNW,282,16.0,25.0,38,0.00,,,0.00,293.000000,,2013-03-05 01:41:00,
2013-03-04 17:50:00,60.0,40.0,-100.00,West,278,15.0,22.0,48,0.00,,,0.00,34.000000,,2013-03-05 01:50:00,
2013-03-04 18:21:00,60.0,40.0,-100.00,West,278,15.0,22.0,48,0.00,,,0.00,34.000000,,2013-03-05 02:21:00,
2013-03-04 18:32:00,60.0,40.0,-100.00,West,278,15.0,22.0,48,0.00,,,0.00,34.000000,,2013-03-05 02:32:00,
2013-03-04 18:41:00,60.0,40.0,-100.00,West,278,15.0,22.0,48,0.00,,,0.00,34.000000,,2013-03-05 02:41:00,
2013-03-04 18:50:00,60.0,42.0,-100.00,West,268,10.0,19.0,52,0.00,,,0.00,0.000000,,2013-03-05 02:50:00,
2013-03-04 19:12:00,60.0,42.0,-100.00,West,268,10.0,19.0,52,0.00,,,0.00,0.000000,,2013-03-05 03:12:00,
2013-03-04 19:22:00,60.0,42.0,-100.00,West,268,10.0,19.0,52,0.00,,,0.00,0.000000,,2013-03-05 03:22:00,
2013-03-04 19:32:00,60.0,42.0,-100.00,West,268,10.0,19.0,52,0.00,,,0.00,0.000000,,2013-03-05 03:32:00,
2013-03-04 19:41:00,60.0,42.0,-100.00,West,268,10.0,19.0,52,0.00,,,0.00,0.000000,,2013-03-05 03:41:00,
2013-03-04 19:50:00,59.0,41.0,-100.00,WNW,302,6.0,16.0,52,0.00,,,0.00,0.000000,,2013-03-05 03:50:00,
2013-03-04 20:11:00,59.0,41.0,-100.00,WNW,302,6.0,16.0,52,0.00,,,0.00,0.000000,,2013-03-05 04:11:00,
2013-03-04 20:21:00,59.0,41.0,-100.00,WNW,302,6.0,16.0,52,0.00,,,0.00,0.000000,,2013-03-05 04:21:00,
2013-03-04 20:31:00,59.0,41.0,-100.00,WNW,302,6.0,16.0,52,0.00,,,0.00,0.000000,,2013-03-05 04:31:00,
2013-03-04 20:41:00,59.0,41.0,-100.00,WNW,302,6.0,16.0,52,0.00,,,0.00,0.000000,,2013-03-05 04:41:00,
2013-03-04 20:50:00,58.0,41.0,-100.00,WNW,290,6.0,10.0,54,0.00,,,0.00,0.000000,,2013-03-05 04:50:00,
2013-03-04 21:11:00,58.0,41.0,-100.00,WNW,290,6.0,10.0,54,0.00,,,0.00,0.000000,,2013-03-05 05:11:00,
2013-03-04 21:22:00,58.0,41.0,-100.00,WNW,290,6.0,10.0,54,0.00,,,0.00,0.000000,,2013-03-05 05:22:00,
2013-03-04 21:31:00,58.0,41.0,-100.00,WNW,290,6.0,10.0,54,0.00,,,0.00,0.000000,,2013-03-05 05:31:00,
2013-03-04 21:41:00,58.0,41.0,-100.00,WNW,290,6.0,10.0,54,0.00,,,0.00,0.000000,,2013-03-05 05:41:00,
2013-03-04 21:50:00,55.0,39.0,-100.00,NW,305,6.0,8.0,55,0.00,,,0.00,0.000000,,2013-03-05 05:50:00,
2013-03-04 22:22:00,55.0,39.0,-100.00,NW,305,6.0,8.0,55,0.00,,,0.00,0.000000,,2013-03-05 06:22:00,
2013-03-04 22:31:00,55.0,39.0,-100.00,NW,305,6.0,8.0,55,0.00,,,0.00,0.000000,,2013-03-05 06:31:00,
2013-03-04 22:41:00,55.0,39.0,-100.00,NW,305,6.0,8.0,55,0.00,,,0.00,0.000000,,2013-03-05 06:41:00,
2013-03-04 22:50:00,53.0,38.0,-100.00,WNW,289,8.0,15.0,57,0.00,,,0.00,0.000000,,2013-03-05 06:50:00,
2013-03-04 23:11:00,53.0,38.0,-100.00,WNW,289,8.0,15.0,57,0.00,,,0.00,0.000000,,2013-03-05 07:11:00,
2013-03-04 23:21:00,53.0,38.0,-100.00,WNW,289,8.0,15.0,57,0.00,,,0.00,0.000000,,2013-03-05 07:21:00,
2013-03-04 23:31:00,53.0,38.0,-100.00,WNW,289,8.0,15.0,57,0.00,,,0.00,0.000000,,2013-03-05 07:31:00,
2013-03-04 23:41:00,53.0,38.0,-100.00,WNW,289,8.0,15.0,57,0.00,,,0.00,0.000000,,2013-03-05 07:41:00,
2013-03-04 23:50:00,52.0,41.0,-100.00,WNW,292,8.0,16.0,66,0.00,,,0.00,0.000000,,2013-03-05 07:50:00,